Weather reports worldwide

Advertisment
Farnborough, United Kingdom (3768): temperature & dewpoint: 25.10.2020 04:00:00 - 31.10.2020 04:00:00 (GMT)Farnborough, United Kingdom (3768): temperature -100cm: 25.10.2020 04:00:00 - 31.10.2020 04:00:00 (GMT)Farnborough, United Kingdom (3768): wind speed & gusts: 25.10.2020 04:00:00 - 31.10.2020 04:00:00 (GMT)Farnborough, United Kingdom (3768): wind direction: 25.10.2020 04:00:00 - 31.10.2020 04:00:00 (GMT)Farnborough, United Kingdom (3768): reduced air pressure: 25.10.2020 04:00:00 - 31.10.2020 04:00:00 (GMT)Farnborough, United Kingdom (3768): visibility: 25.10.2020 04:00:00 - 31.10.2020 04:00:00 (GMT)Farnborough, United Kingdom (3768): precipitation: 25.10.2020 04:00:00 - 31.10.2020 04:00:00 (GMT)
Date & Time tt [°C] td [°C] tt -100cm [°C] ff [km/h] ff [kn] fx [km/h] fx [kn] dd ppp [hPa] vv [km] rr [mm]
31.10.2020 04:00:00 13,3 11,8 - 16 9 - - S 1015,7 26 0,0
31.10.2020 03:00:00 13,3 12,3 - 22 12 - - S 1016,3 7 0,0
31.10.2020 02:00:00 13,6 12,6 - 21 11 - - S 1017,2 26 0,0
31.10.2020 01:00:00 13,6 12,9 - 18 10 - - S 1017,9 6 0,2
31.10.2020 00:00:00 13,6 13,0 - 18 10 - - S 1018,8 4,0 0,0
30.10.2020 23:00:00 13,8 13,2 - 18 10 - - S 1018,8 7 0,0
30.10.2020 22:00:00 13,9 13,4 - 16 9 - - S 1019,5 5 0,0
30.10.2020 21:00:00 14,2 13,4 - 16 9 - - SSW 1019,4 10 0,0
30.10.2020 20:00:00 14,1 13,5 - 18 10 - - SSW 1019,2 17 0,0
30.10.2020 19:00:00 14,2 13,6 - 18 10 - - SSW 1019,3 9 0,2
30.10.2020 18:00:00 14,3 13,6 - 21 11 - - SW 1018,9 7 0,0
30.10.2020 17:00:00 14,8 13,5 - 21 11 - - SW 1018,1 23 0,0
30.10.2020 16:00:00 15,0 13,6 - 24 13 - - SW 1017,7 10 0,0
30.10.2020 15:00:00 15,1 13,8 - 22 12 - - SW 1017,6 8 0,0
30.10.2020 14:00:00 15,2 14,0 - 21 11 - - SW 1017,3 10 0,0
30.10.2020 13:00:00 15,1 14,1 - 24 13 - - SW 1016,9 5 0,0
30.10.2020 12:00:00 15,4 14,5 - 28 15 - - SW 1016,5 5 0,0
30.10.2020 11:00:00 15,2 13,8 - 28 15 - - SW 1016,3 9 0,0
30.10.2020 10:00:00 14,5 13,4 - 31 17 - - SW 1016,1 7 0,0
30.10.2020 09:00:00 14,4 12,9 12,4 28 15 46 25 SW 1015,6 8 0,0
30.10.2020 08:00:00 14,7 12,2 - 26 14 46 25 SW 1015,0 17 0,0
30.10.2020 07:00:00 14,5 12,0 - 29 16 - - SW 1014,3 16 0,0
30.10.2020 06:00:00 14,3 12,2 - 35 19 48 26 SW 1013,9 10 0,0
30.10.2020 05:00:00 14,0 12,5 - 34 18 46 25 SW 1013,9 20 0,0
30.10.2020 04:00:00 13,8 12,6 - 31 17 48 26 SSW 1013,8 10 0,0
30.10.2020 03:00:00 13,6 12,6 - 31 17 50 27 SW 1013,8 3,8 0,0
30.10.2020 02:00:00 14,1 12,2 - 34 18 48 26 SW 1013,5 10 0,0
30.10.2020 01:00:00 13,9 12,2 - 26 14 50 27 SW 1013,6 10 0,0
30.10.2020 00:00:00 13,8 12,3 - 24 13 - - SW 1013,5 10 0,0
29.10.2020 23:00:00 14,0 12,3 - 26 14 - - SW 1013,4 10 0,0
29.10.2020 22:00:00 13,8 12,3 - 29 16 52 28 SW 1013,4 10 0,0
29.10.2020 21:00:00 14,0 12,0 - 28 15 48 26 SW 1012,8 10 0,0
29.10.2020 20:00:00 14,4 11,9 - 31 17 - - SW 1013,0 10 0,0
29.10.2020 19:00:00 14,2 12,1 - 29 16 48 26 SW 1012,7 10 0,0
29.10.2020 18:00:00 14,1 12,0 - 34 18 48 26 SW 1012,4 10 0,0
29.10.2020 17:00:00 13,8 11,9 - 29 16 46 25 SW 1012,1 10 0,0
29.10.2020 16:00:00 13,9 12,2 - 28 15 - - SW 1012,1 10 0,0
29.10.2020 15:00:00 13,8 12,3 - 26 14 - - SW 1012,0 10 0,0
29.10.2020 14:00:00 13,9 12,4 - 28 15 - - SSW 1011,7 10 0,0
29.10.2020 13:00:00 13,5 12,5 - 26 14 - - SSW 1012,4 10 0,6
29.10.2020 12:00:00 13,3 12,2 - 28 15 - - SW 1012,7 10 0,6
29.10.2020 11:00:00 12,6 11,7 - 22 12 - - SSW 1013,3 7 0,6
29.10.2020 10:00:00 11,6 10,9 - 16 9 - - S 1013,4 11 0,6
29.10.2020 09:00:00 11,2 9,8 12,7 16 9 - - S 1013,7 10 0,0
29.10.2020 08:00:00 10,3 8,8 - 21 11 - - SSW 1013,7 10 0,2
29.10.2020 07:00:00 9,7 7,8 - 15 8 - - SSW 1013,5 16 0,0
29.10.2020 06:00:00 9,2 6,9 - 16 9 - - SW 1012,9 10 0,0
29.10.2020 05:00:00 8,9 6,4 - 18 10 - - SW 1012,4 10 0,0
29.10.2020 04:00:00 9,2 6,4 - 21 11 - - SW 1011,4 10 0,0
29.10.2020 03:00:00 8,8 6,2 - 21 11 - - SW 1010,7 10 0,0
29.10.2020 02:00:00 9,1 6,3 - 18 10 - - WSW 1010,3 24 0,0
29.10.2020 01:00:00 8,8 5,7 - 22 12 - - WSW 1009,6 10 0,0
29.10.2020 00:00:00 8,3 5,3 - 26 14 - - WSW 1008,9 10 0,0
28.10.2020 23:00:00 8,6 5,7 - 18 10 - - WSW 1008,1 30 0,0
28.10.2020 22:00:00 8,8 6,1 - 18 10 - - WSW 1007,2 10 0,0
28.10.2020 21:00:00 8,6 5,4 - 21 11 - - WSW 1006,6 10 0,0
28.10.2020 20:00:00 8,8 5,8 - 21 11 - - WSW 1005,7 40 0,0
28.10.2020 19:00:00 8,6 6,4 - 16 9 - - WSW 1005,1 35 0,0
28.10.2020 18:00:00 9,4 6,8 - 21 11 - - SW 1003,9 10 0,0
28.10.2020 17:00:00 8,4 7,0 - 18 10 - - SSW 1003,0 10 0,0
28.10.2020 16:00:00 8,3 6,6 - 18 10 61 33 SW 1002,6 10 1,2
28.10.2020 15:00:00 12,6 7,7 - 24 13 - - SW 1001,8 12 0,0
28.10.2020 14:00:00 11,8 7,2 - 29 16 46 25 SW 1002,0 10 0,0
28.10.2020 13:00:00 12,0 7,4 - 22 12 - - SSW 1002,4 10 0,0
28.10.2020 12:00:00 12,0 8,0 - 28 15 - - SSW 1002,5 10 0,0
28.10.2020 11:00:00 12,2 8,3 - 31 17 - - SW 1002,5 10 0,0
28.10.2020 10:00:00 11,9 7,7 - 29 16 - - SW 1002,6 10 0,0
28.10.2020 09:00:00 10,4 7,5 12,7 18 10 - - SSW 1002,4 10 0,0
28.10.2020 08:00:00 8,9 6,3 - 15 8 - - SSW 1002,1 10 0,0
28.10.2020 07:00:00 8,1 5,7 - 21 11 - - SSW 1001,5 24 0,0
28.10.2020 06:00:00 8,1 5,7 - 16 9 - - SW 1001,4 27 0,0
28.10.2020 05:00:00 7,9 5,7 - 16 9 - - SSW 1001,4 10 0,0
28.10.2020 04:00:00 8,7 5,9 - 22 12 - - SW 1001,0 10 0,0
28.10.2020 03:00:00 8,9 5,9 - 24 13 - - SW 1000,7 30 0,0
28.10.2020 02:00:00 8,8 5,5 - 24 13 - - SSW 1000,6 10 0,0
28.10.2020 01:00:00 8,6 6,6 - 21 11 - - SSW 1000,8 10 0,0
28.10.2020 00:00:00 8,3 6,2 - 15 8 - - SSW 1000,8 10 0,0
27.10.2020 23:00:00 8,3 6,2 - 18 10 - - SW 1000,6 10 0,0
27.10.2020 22:00:00 8,9 6,6 - 21 11 - - SW 1000,1 10 0,0
27.10.2020 21:00:00 8,4 6,2 - 16 9 - - SW 999,6 19 0,0
27.10.2020 20:00:00 8,7 6,5 - 21 11 - - SW 998,8 10 0,0
27.10.2020 19:00:00 9,4 6,5 - 13 7 - - WSW 997,9 19 0,0
27.10.2020 18:00:00 10,6 7,2 - 22 12 - - W 996,9 10 0,0
27.10.2020 17:00:00 11,5 9,6 - 18 10 - - WSW 995,5 45 0,0
27.10.2020 16:00:00 11,4 9,8 - 24 13 50 27 W 994,7 29 1,4
27.10.2020 15:00:00 14,6 13,1 - 26 14 - - SW 993,4 12 0,2
27.10.2020 14:00:00 13,3 12,8 - 22 12 - - S 993,4 5 0,2
27.10.2020 13:00:00 12,1 11,3 - 29 16 52 28 S 994,3 5 0,2
27.10.2020 12:00:00 11,8 10,9 - 28 15 48 26 S 995,6 13 0,0
27.10.2020 11:00:00 11,2 10,2 - 26 14 - - S 997,1 4,8 0,2
27.10.2020 10:00:00 10,2 9,7 - 18 10 - - S 998,0 7 0,2
27.10.2020 09:00:00 9,3 8,6 12,7 13 7 - - SSE 999,1 25 0,0
27.10.2020 08:00:00 8,4 7,6 - 11 6 - - S 1000,0 16 0,4
27.10.2020 07:00:00 8,1 7,0 - 11 6 - - S 1000,3 25 0,0
27.10.2020 06:00:00 8,0 6,6 - 13 7 - - SSW 1000,7 10 0,0
27.10.2020 05:00:00 7,5 6,3 - 9 5 - - SSW 1001,2 30 0,0
27.10.2020 04:00:00 7,1 6,1 - 9 5 - - SW 1001,4 30 0,0
27.10.2020 03:00:00 7,0 5,9 - 8 4 - - WSW 1001,6 26 0,0
27.10.2020 02:00:00 7,3 6,2 - 15 8 - - WSW 1002,0 10 0,0
27.10.2020 01:00:00 7,9 6,4 - 16 9 - - WSW 1001,8 10 0,0
27.10.2020 00:00:00 7,8 6,0 - 15 8 - - WSW 1002,1 10 0,0
26.10.2020 23:00:00 7,8 6,2 - 9 5 - - WSW 1002,1 23 0,0
26.10.2020 22:00:00 8,0 6,5 - 13 7 - - WSW 1002,1 10 0,0
26.10.2020 21:00:00 8,4 6,6 - 15 8 - - WSW 1001,8 10 0,0
26.10.2020 20:00:00 8,7 7,0 - 11 6 - - WSW 1001,1 18 0,0
26.10.2020 19:00:00 7,1 5,8 - 13 7 - - SW 1001,0 10 0,0
26.10.2020 18:00:00 7,7 5,7 - 11 6 - - SW 1000,3 10 0,0
26.10.2020 17:00:00 10,9 6,3 - 13 7 - - WSW 999,4 10 0,0
26.10.2020 16:00:00 12,4 5,7 - 15 8 - - W 998,8 10 0,0
26.10.2020 15:00:00 12,9 6,6 - 18 10 - - W 998,4 40 0,0
26.10.2020 14:00:00 13,3 7,4 - 21 11 - - WSW 997,9 50 0,0
26.10.2020 13:00:00 12,7 8,2 - 18 10 - - WSW 997,7 10 0,0
26.10.2020 12:00:00 12,1 8,4 - 26 14 - - WSW 997,5 10 0,0
26.10.2020 11:00:00 11,4 8,0 - 22 12 - - WSW 997,5 26 0,0
26.10.2020 10:00:00 9,6 7,1 - 18 10 - - SW 997,3 29 0,0
26.10.2020 09:00:00 9,4 7,2 12,9 16 9 - - SW 997,2 10 0,0
26.10.2020 08:00:00 7,9 6,0 - 16 9 - - SW 997,0 10 0,0
26.10.2020 07:00:00 6,0 4,8 - 15 8 - - SW 996,5 30 0,0
26.10.2020 06:00:00 6,4 5,3 - 15 8 - - SW 996,2 10 0,0
26.10.2020 05:00:00 6,5 5,3 - 13 7 - - SSW 996,2 28 0,0
26.10.2020 04:00:00 6,3 5,1 - 15 8 - - SW 996,2 10 0,0
26.10.2020 03:00:00 5,6 5,0 - 11 6 - - SSW 996,2 10 0,0
26.10.2020 02:00:00 5,5 4,7 - 11 6 - - SSW 996,6 10 0,0
26.10.2020 01:00:00 6,8 6,1 - 13 7 - - S 996,8 30 0,2
26.10.2020 00:00:00 6,2 5,7 - 11 6 - - S 996,7 10 0,0
25.10.2020 23:00:00 6,3 6,0 - 4 2 - - S 996,9 18 0,0
25.10.2020 22:00:00 6,5 6,0 - 9 5 - - S 996,8 10 0,0
25.10.2020 21:00:00 6,7 6,2 - 5 3 - - - 996,8 10 0,0
25.10.2020 20:00:00 7,2 6,2 - 9 5 - - SSE 996,6 25 0,0
25.10.2020 19:00:00 7,4 6,7 - 4 2 - - SSW 996,5 28 0,0
25.10.2020 18:00:00 8,5 7,4 - 13 7 - - S 996,2 10 0,0
25.10.2020 17:00:00 9,6 7,7 - 18 10 - - SW 996,1 18 0,6
25.10.2020 16:00:00 10,9 8,1 - 15 8 - - S 996,0 30 0,0
25.10.2020 15:00:00 11,2 7,5 - 16 9 - - S 995,8 35 0,2
25.10.2020 14:00:00 11,1 8,0 - 26 14 - - SSW 996,0 10 0,0
25.10.2020 13:00:00 10,8 7,9 - 13 7 - - SSW 996,4 45 0,0
25.10.2020 12:00:00 11,5 8,4 - 16 9 - - S 996,5 10 0,0
25.10.2020 11:00:00 10,4 8,8 - 15 8 - - S 996,9 10 0,0
25.10.2020 10:00:00 9,1 7,0 - 16 9 - - W 997,3 4,8 1,0
25.10.2020 09:00:00 9,1 7,7 13,0 18 10 - - S 997,0 10 0,4
25.10.2020 08:00:00 8,3 7,3 - 11 6 - - S 997,3 10 0,2
25.10.2020 07:00:00 8,8 7,4 - 18 10 - - SSW 996,6 20 0,2
25.10.2020 06:00:00 4,3 3,8 - 9 5 - - S 996,7 10 0,0
25.10.2020 05:00:00 6,6 5,7 - 5 3 46 25 SSW 996,7 10 0,8
25.10.2020 04:00:00 8,4 7,8 - 13 7 - - SW 997,2 10 0,0

tt = temperature
td = dewpoint
tt -100cm = temperature -100cm
ff = wind speed
fx = gusts
dd = wind direction
ppp = reduced air pressure
vv = visibility
rr = precipitation

Next stations